• En España
  • Lista de países
  • Para 7 días
  • Temperatura del agua
  • Mapa Satelital
  • El tiempo en el mapa
  • Informadores
  • user-avatar
    Iniciar sesión

    Tiempo cada hora Kakanj

    Hoy, 19 Septiembre, Miércoles

    Tiempo Temperatura Precipitaciones Viento Presión Humedad
    00:00 +16°C° 0 mm 1 mps 726 mmHg 69%
    01:00 +16°C° 0 mm 1 mps 726 mmHg 69%
    02:00 +16°C° 0 mm 1 mps 726 mmHg 70%
    03:00 +16°C° 0 mm 1 mps 726 mmHg 70%
    04:00 +16°C° 0 mm 1 mps 726 mmHg 70%
    05:00 +18°C° 0 mm 1 mps 726 mmHg 68%
    06:00 +19°C° 0 mm 1 mps 726 mmHg 66%
    07:00 +20°C° 0 mm 1 mps 726 mmHg 59%
    08:00 +23°C° 0 mm 1 mps 726 mmHg 53%
    09:00 +26°C° 0 mm 1 mps 727 mmHg 47%
    10:00 +28°C° 0 mm 1 mps 727 mmHg 41%
    11:00 +29°C° 0 mm 1 mps 727 mmHg 39%
    12:00 +29°C° 0 mm 1 mps 727 mmHg 38%
    13:00 +29°C° 0 mm 2 mps 727 mmHg 38%
    14:00 +29°C° 0 mm 2 mps 726 mmHg 42%
    15:00 +28°C° 0 mm 2 mps 726 mmHg 45%
    16:00 +27°C° 0 mm 2 mps 726 mmHg 48%
    17:00 +25°C° 0.1 mm 1 mps 726 mmHg 56%
    18:00 +23°C° 0.1 mm 1 mps 726 mmHg 63%
    19:00 +20°C° 0.1 mm 1 mps 726 mmHg 70%
    20:00 +20°C° 0 mm 1 mps 726 mmHg 72%
    21:00 +19°C° 0 mm 1 mps 726 mmHg 74%
    22:00 +19°C° 0 mm 1 mps 726 mmHg 77%
    23:00 +18°C° 0 mm 1 mps 726 mmHg 78%

    Mañana, 20 Septiembre, Jueves

    Tiempo Temperatura Precipitaciones Viento Presión Humedad
    00:00 +18°C° 0 mm 1 mps 726 mmHg 79%
    01:00 +18°C° 0 mm 1 mps 726 mmHg 80%
    02:00 +16°C° 0 mm 0 mps 726 mmHg 80%
    03:00 +16°C° 0 mm 0 mps 726 mmHg 80%
    04:00 +16°C° 0 mm 0 mps 726 mmHg 80%
    05:00 +17°C° 0 mm 0 mps 726 mmHg 78%
    06:00 +18°C° 0 mm 0 mps 726 mmHg 75%
    07:00 +18°C° 0 mm 0 mps 726 mmHg 73%
    08:00 +22°C° 0 mm 1 mps 726 mmHg 65%
    09:00 +25°C° 0 mm 1 mps 727 mmHg 57%
    10:00 +27°C° 0 mm 1 mps 727 mmHg 49%
    11:00 +27°C° 0.1 mm 1 mps 727 mmHg 48%
    12:00 +27°C° 0.1 mm 1 mps 726 mmHg 47%
    13:00 +28°C° 0.1 mm 2 mps 726 mmHg 46%
    14:00 +27°C° 0.1 mm 1 mps 726 mmHg 50%
    15:00 +26°C° 0.1 mm 1 mps 726 mmHg 54%
    16:00 +25°C° 0.1 mm 1 mps 725 mmHg 58%
    17:00 +24°C° 0.1 mm 1 mps 725 mmHg 63%
    18:00 +22°C° 0.1 mm 1 mps 725 mmHg 68%
    19:00 +19°C° 0.1 mm 0 mps 725 mmHg 72%
    20:00 +20°C° 0.1 mm 1 mps 725 mmHg 74%
    21:00 +20°C° 0.1 mm 1 mps 725 mmHg 77%
    22:00 +19°C° 0.1 mm 1 mps 725 mmHg 79%
    23:00 +19°C° 0.1 mm 1 mps 725 mmHg 80%

    Pasado mañana, 21 Septiembre, Viernes

    Tiempo Temperatura Precipitaciones Viento Presión Humedad
    00:00 +19°C° 0.1 mm 1 mps 725 mmHg 82%
    01:00 +18°C° 0.1 mm 1 mps 725 mmHg 84%
    02:00 +18°C° 0 mm 1 mps 725 mmHg 85%
    03:00 +18°C° 0 mm 1 mps 724 mmHg 86%
    04:00 +18°C° 0 mm 1 mps 724 mmHg 87%
    05:00 +19°C° 0.1 mm 1 mps 724 mmHg 85%
    06:00 +19°C° 0.1 mm 1 mps 725 mmHg 82%
    07:00 +20°C° 0.1 mm 1 mps 725 mmHg 80%
    08:00 +23°C° 0 mm 1 mps 725 mmHg 71%
    09:00 +25°C° 0 mm 1 mps 725 mmHg 61%
    10:00 +28°C° 0 mm 1 mps 725 mmHg 52%
    11:00 +28°C° 0.5 mm 1 mps 725 mmHg 52%
    12:00 +29°C° 0.5 mm 1 mps 725 mmHg 51%
    13:00 +29°C° 0.5 mm 1 mps 725 mmHg 50%
    14:00 +28°C° 0.9 mm 1 mps 724 mmHg 54%
    15:00 +28°C° 0.9 mm 1 mps 724 mmHg 57%
    16:00 +27°C° 0.9 mm 1 mps 724 mmHg 61%
    17:00 +25°C° 0.5 mm 1 mps 724 mmHg 67%
    18:00 +23°C° 0.5 mm 1 mps 724 mmHg 73%
    19:00 +21°C° 0.5 mm 1 mps 724 mmHg 79%
    20:00 +20°C° 0.1 mm 1 mps 724 mmHg 81%
    21:00 +20°C° 0.1 mm 1 mps 724 mmHg 83%
    22:00 +19°C° 0.1 mm 1 mps 725 mmHg 85%
    23:00 +19°C° 0 mm 1 mps 725 mmHg 86%

    22 Septiembre, Sábado

    Tiempo Temperatura Precipitaciones Viento Presión Humedad
    00:00 +19°C° 0 mm 1 mps 725 mmHg 87%
    01:00 +19°C° 0 mm 1 mps 725 mmHg 88%
    02:00 +18°C° 0 mm 1 mps 725 mmHg 88%
    03:00 +18°C° 0 mm 1 mps 725 mmHg 88%
    04:00 +18°C° 0 mm 1 mps 725 mmHg 88%
    05:00 +19°C° 0 mm 1 mps 725 mmHg 86%
    06:00 +20°C° 0 mm 1 mps 725 mmHg 83%
    07:00 +20°C° 0 mm 1 mps 725 mmHg 80%
    08:00 +23°C° 0 mm 1 mps 726 mmHg 71%
    09:00 +26°C° 0 mm 1 mps 726 mmHg 61%
    10:00 +28°C° 0 mm 1 mps 726 mmHg 52%
    11:00 +29°C° 0.1 mm 1 mps 726 mmHg 51%
    12:00 +29°C° 0.1 mm 1 mps 726 mmHg 50%
    13:00 +29°C° 0.1 mm 1 mps 726 mmHg 49%
    14:00 +28°C° 0.2 mm 1 mps 726 mmHg 55%
    15:00 +27°C° 0.2 mm 2 mps 726 mmHg 61%
    16:00 +26°C° 0.2 mm 2 mps 726 mmHg 66%
    17:00 +24°C° 0.1 mm 2 mps 726 mmHg 71%
    18:00 +21°C° 0.1 mm 2 mps 726 mmHg 76%
    19:00 +20°C° 0.1 mm 1 mps 727 mmHg 81%
    20:00 +19°C° 0 mm 1 mps 727 mmHg 81%
    21:00 +18°C° 0 mm 1 mps 727 mmHg 81%
    22:00 +15°C° 0 mm 1 mps 728 mmHg 81%
    23:00 +15°C° 0 mm 1 mps 728 mmHg 80%

    23 Septiembre, Domingo

    Tiempo Temperatura Precipitaciones Viento Presión Humedad
    00:00 +14°C° 0 mm 1 mps 728 mmHg 80%
    01:00 +13°C° 0 mm 1 mps 728 mmHg 79%
    02:00 +13°C° 0 mm 1 mps 728 mmHg 79%
    03:00 +13°C° 0 mm 1 mps 728 mmHg 79%
    04:00 +12°C° 0 mm 1 mps 727 mmHg 79%
    05:00 +13°C° 0 mm 1 mps 728 mmHg 77%
    06:00 +14°C° 0 mm 1 mps 728 mmHg 74%
    07:00 +15°C° 0 mm 1 mps 728 mmHg 72%
    08:00 +19°C° 0 mm 1 mps 728 mmHg 65%
    09:00 +22°C° 0 mm 1 mps 728 mmHg 58%
    10:00 +24°C° 0 mm 1 mps 728 mmHg 51%
    11:00 +26°C° 0 mm 1 mps 728 mmHg 49%
    12:00 +28°C° 0 mm 1 mps 727 mmHg 46%
    13:00 +30°C° 0 mm 1 mps 727 mmHg 43%
    14:00 +29°C° 0 mm 1 mps 726 mmHg 46%
    15:00 +28°C° 0 mm 1 mps 726 mmHg 48%
    16:00 +28°C° 0 mm 1 mps 725 mmHg 51%
    17:00 +26°C° 0 mm 1 mps 725 mmHg 59%
    18:00 +23°C° 0 mm 1 mps 725 mmHg 67%
    19:00 +21°C° 0 mm 1 mps 724 mmHg 74%
    20:00 +20°C° 0 mm 1 mps 724 mmHg 78%
    21:00 +19°C° 0 mm 2 mps 724 mmHg 81%
    22:00 +19°C° 0 mm 2 mps 723 mmHg 84%
    23:00 +18°C° 0 mm 2 mps 723 mmHg 85%

    24 Septiembre, Lunes

    Tiempo Temperatura Precipitaciones Viento Presión Humedad
    00:00 +18°C° 0 mm 2 mps 722 mmHg 85%
    01:00 +18°C° 0 mm 2 mps 721 mmHg 85%
    02:00 +18°C° 0 mm 3 mps 720 mmHg 83%
    03:00 +18°C° 0 mm 3 mps 720 mmHg 81%
    04:00 +18°C° 0 mm 3 mps 719 mmHg 79%
    05:00 +19°C° 0 mm 3 mps 719 mmHg 78%
    06:00 +20°C° 0 mm 3 mps 719 mmHg 76%
    07:00 +20°C° 0 mm 3 mps 719 mmHg 75%
    08:00 +21°C° 0.2 mm 4 mps 720 mmHg 72%
    09:00 +22°C° 0.2 mm 5 mps 721 mmHg 70%
    10:00 +23°C° 0.2 mm 6 mps 722 mmHg 68%
    11:00 +19°C° 0.7 mm 4 mps 723 mmHg 74%
    12:00 +16°C° 0.7 mm 3 mps 724 mmHg 80%
    13:00 +12°C° 0.7 mm 2 mps 724 mmHg 87%
    14:00 +13°C° 0.1 mm 2 mps 725 mmHg 82%
    15:00 +13°C° 0.1 mm 2 mps 725 mmHg 77%
    16:00 +14°C° 0.1 mm 2 mps 725 mmHg 72%
    17:00 +13°C° 0 mm 1 mps 726 mmHg 73%
    18:00 +13°C° 0 mm 1 mps 726 mmHg 74%
    19:00 +12°C° 0 mm 1 mps 726 mmHg 75%
    20:00 +11°C° 0 mm 1 mps 726 mmHg 77%
    21:00 +11°C° 0 mm 1 mps 727 mmHg 79%
    22:00 +10°C° 0 mm 1 mps 727 mmHg 80%
    23:00 +9°C° 0.1 mm 2 mps 727 mmHg 81%
    Mostrar más